When you browse on this site, cookies collect data to enhance your experience and personalize the content and advertising you see.
Visit our Privacy Policy to learn more. By continuing to use the site, you agree to this use of cookies and data.
  • In Czech Republic
  • List of Countries
  • For 7 days
  • Water Temperature
  • Satellite Maps
  • Weather Map
  • Weather Widgets
  • user-avatar
    Login

    Hourly Weather Megri

    Today, 24 May, Friday

    Time Temperature Precipitation Wind Pressure Humidity
    00:00 +14°C° 0 mm 2 mps 623 mmHg 65%
    01:00 +14°C° 0 mm 2 mps 623 mmHg 66%
    02:00 +14°C° 0 mm 1 mps 622 mmHg 68%
    03:00 +13°C° 0 mm 1 mps 622 mmHg 71%
    04:00 +14°C° 0 mm 1 mps 623 mmHg 68%
    05:00 +15°C° 0 mm 1 mps 623 mmHg 65%
    06:00 +16°C° 0 mm 1 mps 623 mmHg 63%
    07:00 +18°C° 0.1 mm 2 mps 624 mmHg 56%
    08:00 +19°C° 0.1 mm 3 mps 624 mmHg 48%
    09:00 +21°C° 0.1 mm 4 mps 625 mmHg 41%
    10:00 +22°C° 0 mm 5 mps 625 mmHg 38%
    11:00 +24°C° 0 mm 6 mps 625 mmHg 34%
    12:00 +26°C° 0 mm 6 mps 625 mmHg 30%
    13:00 +26°C° 0 mm 6 mps 625 mmHg 29%
    14:00 +26°C° 0 mm 6 mps 625 mmHg 28%
    15:00 +26°C° 0 mm 7 mps 625 mmHg 27%
    16:00 +26°C° 0 mm 5 mps 625 mmHg 29%
    17:00 +25°C° 0 mm 4 mps 625 mmHg 32%
    18:00 +24°C° 0 mm 2 mps 625 mmHg 34%
    19:00 +21°C° 0 mm 2 mps 624 mmHg 39%
    20:00 +20°C° 0 mm 1 mps 624 mmHg 44%
    21:00 +18°C° 0 mm 1 mps 624 mmHg 49%
    22:00 +18°C° 0 mm 1 mps 624 mmHg 51%
    23:00 +16°C° 0 mm 1 mps 623 mmHg 53%

    Tomorrow, 25 May, Saturday

    Time Temperature Precipitation Wind Pressure Humidity
    00:00 +15°C° 0 mm 1 mps 623 mmHg 55%
    01:00 +15°C° 0.1 mm 1 mps 623 mmHg 54%
    02:00 +15°C° 0.1 mm 1 mps 623 mmHg 53%
    03:00 +15°C° 0.1 mm 1 mps 624 mmHg 52%
    04:00 +16°C° 0 mm 1 mps 624 mmHg 51%
    05:00 +18°C° 0 mm 1 mps 625 mmHg 50%
    06:00 +19°C° 0 mm 1 mps 625 mmHg 48%
    07:00 +20°C° 0 mm 2 mps 626 mmHg 41%
    08:00 +23°C° 0 mm 2 mps 626 mmHg 34%
    09:00 +25°C° 0 mm 2 mps 627 mmHg 27%
    10:00 +27°C° 0 mm 4 mps 627 mmHg 25%
    11:00 +28°C° 0 mm 5 mps 627 mmHg 22%
    12:00 +29°C° 0 mm 6 mps 627 mmHg 20%
    13:00 +29°C° 0.1 mm 7 mps 627 mmHg 20%
    14:00 +29°C° 0.1 mm 7 mps 627 mmHg 21%
    15:00 +29°C° 0.1 mm 7 mps 626 mmHg 21%
    16:00 +27°C° 0.5 mm 5 mps 626 mmHg 28%
    17:00 +25°C° 0.5 mm 3 mps 625 mmHg 35%
    18:00 +23°C° 0.5 mm 1 mps 624 mmHg 42%
    19:00 +21°C° 0.5 mm 2 mps 624 mmHg 50%
    20:00 +19°C° 0.5 mm 2 mps 624 mmHg 58%
    21:00 +18°C° 0.5 mm 2 mps 624 mmHg 66%
    22:00 +17°C° 0 mm 2 mps 623 mmHg 62%
    23:00 +17°C° 0 mm 2 mps 623 mmHg 58%

    Day after tomorrow, 26 May, Sunday

    Time Temperature Precipitation Wind Pressure Humidity
    00:00 +17°C° 0 mm 2 mps 623 mmHg 54%
    01:00 +17°C° 0 mm 2 mps 623 mmHg 52%
    02:00 +17°C° 0 mm 2 mps 623 mmHg 49%
    03:00 +17°C° 0 mm 2 mps 623 mmHg 47%
    04:00 +17°C° 0 mm 2 mps 623 mmHg 46%
    05:00 +18°C° 0 mm 2 mps 623 mmHg 45%
    06:00 +18°C° 0 mm 2 mps 624 mmHg 45%
    07:00 +21°C° 0 mm 3 mps 624 mmHg 38%
    08:00 +24°C° 0 mm 3 mps 625 mmHg 31%
    09:00 +26°C° 0 mm 4 mps 626 mmHg 24%
    10:00 +27°C° 0 mm 6 mps 626 mmHg 23%
    11:00 +28°C° 0 mm 8 mps 626 mmHg 21%
    12:00 +29°C° 0 mm 10 mps 626 mmHg 19%
    13:00 +29°C° 0 mm 10 mps 626 mmHg 19%
    14:00 +29°C° 0 mm 10 mps 625 mmHg 19%
    15:00 +29°C° 0 mm 11 mps 625 mmHg 18%
    16:00 +28°C° 0.1 mm 9 mps 625 mmHg 22%
    17:00 +27°C° 0.1 mm 7 mps 624 mmHg 25%
    18:00 +26°C° 0.1 mm 5 mps 624 mmHg 29%
    19:00 +22°C° 0 mm 4 mps 623 mmHg 34%
    20:00 +20°C° 0 mm 3 mps 623 mmHg 38%
    21:00 +18°C° 0 mm 2 mps 623 mmHg 43%
    22:00 +17°C° 0 mm 2 mps 622 mmHg 48%
    23:00 +16°C° 0 mm 2 mps 622 mmHg 54%

    27 May, Monday

    Time Temperature Precipitation Wind Pressure Humidity
    00:00 +16°C° 0 mm 2 mps 622 mmHg 59%
    01:00 +15°C° 0 mm 2 mps 622 mmHg 62%
    02:00 +15°C° 0 mm 2 mps 622 mmHg 65%
    03:00 +14°C° 0 mm 2 mps 622 mmHg 68%
    04:00 +15°C° 0 mm 2 mps 623 mmHg 69%
    05:00 +15°C° 0 mm 2 mps 623 mmHg 71%
    06:00 +15°C° 0 mm 2 mps 623 mmHg 72%
    07:00 +17°C° 0 mm 2 mps 624 mmHg 63%
    08:00 +18°C° 0 mm 2 mps 625 mmHg 54%
    09:00 +20°C° 0 mm 2 mps 625 mmHg 45%
    10:00 +21°C° 0 mm 2 mps 626 mmHg 41%
    11:00 +23°C° 0 mm 1 mps 626 mmHg 37%
    12:00 +24°C° 0 mm 1 mps 626 mmHg 33%
    13:00 +25°C° 0 mm 2 mps 626 mmHg 31%
    14:00 +25°C° 0 mm 2 mps 626 mmHg 29%
    15:00 +25°C° 0 mm 3 mps 626 mmHg 28%
    16:00 +24°C° 0.1 mm 3 mps 626 mmHg 34%
    17:00 +22°C° 0.1 mm 3 mps 625 mmHg 40%
    18:00 +21°C° 0.1 mm 3 mps 625 mmHg 47%
    19:00 +19°C° 0.3 mm 3 mps 625 mmHg 57%
    20:00 +18°C° 0.3 mm 3 mps 625 mmHg 66%
    21:00 +16°C° 0.3 mm 3 mps 625 mmHg 76%
    22:00 +14°C° 0 mm 3 mps 625 mmHg 78%
    23:00 +14°C° 0 mm 3 mps 625 mmHg 79%

    28 May, Tuesday

    Time Temperature Precipitation Wind Pressure Humidity
    00:00 +13°C° 0 mm 3 mps 625 mmHg 81%
    01:00 +13°C° 0 mm 3 mps 625 mmHg 82%
    02:00 +13°C° 0 mm 2 mps 625 mmHg 82%
    03:00 +13°C° 0 mm 2 mps 625 mmHg 83%
    04:00 +12°C° 0 mm 3 mps 625 mmHg 82%
    05:00 +12°C° 0 mm 3 mps 626 mmHg 80%
    06:00 +13°C° 0 mm 3 mps 626 mmHg 78%
    07:00 +14°C° 0 mm 3 mps 626 mmHg 70%
    08:00 +17°C° 0 mm 3 mps 627 mmHg 62%
    09:00 +18°C° 0 mm 3 mps 627 mmHg 53%
    10:00 +19°C° 0 mm 3 mps 627 mmHg 51%
    11:00 +20°C° 0 mm 3 mps 627 mmHg 49%
    12:00 +21°C° 0 mm 3 mps 627 mmHg 47%
    13:00 +21°C° 0.4 mm 4 mps 627 mmHg 47%
    14:00 +21°C° 0.4 mm 4 mps 627 mmHg 48%
    15:00 +22°C° 0.4 mm 4 mps 627 mmHg 48%
    16:00 +21°C° 0.6 mm 4 mps 626 mmHg 51%
    17:00 +20°C° 0.6 mm 4 mps 626 mmHg 53%
    18:00 +19°C° 0.6 mm 4 mps 626 mmHg 56%
    19:00 +17°C° 0 mm 4 mps 626 mmHg 62%
    20:00 +15°C° 0 mm 4 mps 626 mmHg 67%
    21:00 +13°C° 0 mm 3 mps 626 mmHg 73%
    22:00 +13°C° 0 mm 3 mps 626 mmHg 75%
    23:00 +12°C° 0 mm 3 mps 626 mmHg 77%

    29 May, Wednesday

    Time Temperature Precipitation Wind Pressure Humidity
    00:00 +12°C° 0 mm 3 mps 626 mmHg 80%
    01:00 +11°C° 0 mm 3 mps 625 mmHg 80%
    02:00 +11°C° 0 mm 3 mps 625 mmHg 80%
    03:00 +10°C° 0 mm 2 mps 625 mmHg 80%
    04:00 +12°C° 0 mm 2 mps 625 mmHg 77%
    05:00 +11°C° 0 mm 3 mps 626 mmHg 74%
    06:00 +12°C° 0 mm 3 mps 626 mmHg 71%
    07:00 +14°C° 0 mm 3 mps 626 mmHg 62%
    08:00 +16°C° 0 mm 3 mps 627 mmHg 54%
    09:00 +18°C° 0 mm 3 mps 627 mmHg 45%
    10:00 +19°C° 0 mm 3 mps 627 mmHg 42%
    11:00 +20°C° 0 mm 3 mps 627 mmHg 39%
    12:00 +21°C° 0 mm 3 mps 627 mmHg 36%
    13:00 +22°C° 0 mm 3 mps 627 mmHg 36%
    14:00 +22°C° 0 mm 4 mps 627 mmHg 36%
    15:00 +22°C° 0 mm 4 mps 627 mmHg 36%
    16:00 +22°C° 0 mm 4 mps 626 mmHg 39%
    17:00 +21°C° 0 mm 4 mps 626 mmHg 42%
    18:00 +20°C° 0 mm 4 mps 626 mmHg 45%
    19:00 +18°C° 0 mm 3 mps 625 mmHg 50%
    20:00 +16°C° 0 mm 3 mps 625 mmHg 55%
    21:00 +14°C° 0 mm 3 mps 625 mmHg 59%
    22:00 +13°C° 0 mm 3 mps 625 mmHg 62%
    23:00 +13°C° 0 mm 3 mps 624 mmHg 64%
    Show more